Wind_Speed
25 27 28 27 28 25 21 18 15 17 24 22 21 18 15 16 13 7 3 2 5 3 5 3 3 2 2 4 6 9 6 3 6 6 4 2 3 5 3 4 8 6 5 4 5 3 2 9 7 3 8 7 6 7
25 27 27 27 25 25 24 20 16 17 19 22 21 18 15 17 15 7 2 1 2 3 4 5 7 6 6 6 5 6 3 13 4 4 2 2 3 2 6 5 2 4 1 2 5 5 10 7 12 8 8 8 8 9
25 26 25 25 25 24 24 21 17 16 17 23 21 18 16 17 17 7 3 2 1 3 5 5 4 5 4 5 2 2 2 3 2 4 3 2 2 3 4 1 9 3 2 4 7 8 10 11 10 10 10 10 11 11
25 26 25 24 22 22 22 23 21 17 17 23 22 18 16 16 15 8 3 0 3 1 3 3 2 3 7 2 3 2 2 3 5 2 3 2 1 2 1 3 5 3 7 7 11 12 11 10 11 12 13 13 13 13
24 24 24 23 22 22 22 22 22 20 18 21 22 17 16 15 13 8 4 1 4 4 2 5 6 7 6 4 3 4 6 4 4 3 2 2 2 2 1 2 2 5 5 7 6 16 5 13 12 13 13 12 12 13
24 24 23 23 21 22 22 22 20 18 16 22 22 17 16 14 12 5 1 5 4 3 1 4 4 5 6 8 9 7 5 3 2 3 2 2 2 3 3 4 4 4 3 4 6 13 15 15 14 14 13 13 15 15
22 22 23 23 21 22 22 20 20 19 18 21 20 17 15 14 12 0 1 2 6 2 1 4 5 4 3 5 4 4 5 3 3 2 1 2 4 2 1 3 8 6 7 11 14 17 16 15 14 16 17 17 17 17
20 21 22 21 22 21 22 22 22 21 20 22 17 15 13 11 9 5 3 4 8 3 1 2 3 5 2 4 3 2 3 2 4 1 2 3 3 2 3 4 10 10 12 15 10 5 15 18 19 17 19 19 16 14
20 20 21 21 22 22 23 24 24 23 21 21 17 17 12 4 4 2 4 10 1 3 2 3 7 4 3 3 2 3 1 2 0 2 2 3 4 4 5 10 11 13 9 12 11 16 17 17 16 16 17 16 14 13
20 20 21 21 22 24 23 25 23 27 24 24 24 7 2 6 12 12 3 2 3 2 2 3 3 4 5 4 2 3 0 2 2 2 1 3 5 3 3 7 11 10 13 15 18 16 17 16 15 15 14 16 17 17
22 22 21 21 22 23 25 26 26 29 27 20 7 3 7 23 7 2 2 3 3 4 5 4 6 8 1 5 4 2 2 1 3 3 3 3 4 9 9 9 8 10 14 14 11 16 17 17 16 14 15 17 18 18
23 23 24 24 25 26 27 27 28 23 16 16 10 8 9 4 1 4 4 4 5 6 8 10 9 7 4 2 3 1 2 1 2 2 1 3 3 13 11 10 11 14 14 10 16 19 20 20 19 19 20 20 19 18
24 27 26 27 27 27 28 29 32 30 15 14 4 5 4 1 5 9 9 6 6 9 11 13 9 4 4 2 3 3 3 3 2 1 3 3 10 9 10 9 13 15 13 17 19 19 18 16 19 20 23 21 23 24
28 28 30 30 31 31 30 32 31 32 10 3 6 7 5 5 6 6 10 10 9 11 15 12 7 3 3 4 3 4 2 4 3 4 5 6 11 12 10 9 12 13 17 17 15 17 19 23 22 22 25 27 28 26
31 32 31 31 32 29 29 30 31 28 2 3 3 5 6 8 7 7 8 11 11 13 14 10 5 4 4 3 2 3 4 4 5 3 3 8 13 13 12 12 14 12 15 16 17 17 19 22 21 22 23 19 22 27
32 25 28 30 31 29 31 30 23 11 2 3 6 7 9 9 7 7 12 12 12 13 13 6 5 5 4 4 6 7 6 5 3 4 7 10 13 13 13 13 15 17 19 19 19 21 20 21 23 21 18 17 24 24
33 10 29 32 34 34 36 18 13 4 3 5 3 5 8 10 10 11 12 13 16 13 10 4 6 6 6 4 6 5 3 4 6 7 7 11 13 13 16 17 17 19 20 21 21 19 21 20 21 20 19 19 16 17
28 30 30 38 37 32 26 3 3 3 3 4 3 7 5 11 12 11 11 12 12 11 7 3 5 6 5 6 5 5 4 5 7 8 9 11 17 18 18 19 19 19 20 20 20 21 20 20 19 18 21 20 18 17
37 37 43 46 39 10 4 5 4 1 3 3 4 7 7 9 9 8 9 13 10 8 6 3 3 4 4 1 4 7 8 7 8 7 8 17 18 19 19 19 19 19 19 19 20 18 18 18 17 20 20 20 18 18
48 55 58 54 30 6 5 3 5 5 6 4 5 5 5 7 9 10 11 9 9 6 2 2 2 3 4 4 4 8 8 11 10 9 7 9 15 18 18 18 17 18 18 17 15 17 18 16 17 18 19 18 18 17
56 52 56 41 6 2 2 4 4 3 4 3 9 9 6 6 9 11 9 8 5 2 3 2 5 5 7 6 9 15 17 19 10 8 10 8 15 16 17 16 18 17 17 16 16 15 15 16 17 18 18 17 15 15
42 51 26 10 3 2 2 5 2 4 4 6 6 6 3 3 2 3 4 6 3 3 2 5 6 6 6 8 12 16 20 19 18 21 19 21 12 14 15 16 17 15 15 15 16 16 15 16 17 18 18 17 17 16
28 24 11 5 3 7 4 5 5 4 4 6 8 5 3 3 1 3 3 3 3 3 6 8 9 11 14 15 18 18 17 18 17 18 20 16 16 17 18 17 16 16 15 15 15 17 16 18 20 19 20 19 18 19
13 5 3 1 1 3 3 2 4 4 5 4 4 6 4 3 4 1 3 4 4 8 6 11 13 10 13 15 10 13 14 15 18 19 17 18 16 17 18 17 16 15 15 17 17 17 18 19 21 21 22 22 23 24
5 3 3 1 2 2 4 3 3 5 4 4 4 4 3 3 3 2 5 5 7 6 7 10 11 10 9 8 12 12 12 16 17 15 16 16 17 18 17 16 15 15 16 18 18 22 22 22 23 23 24 25 24 22
2 2 2 2 2 3 3 4 4 5 6 4 4 4 3 3 3 3 6 8 8 9 8 9 8 7 8 13 9 13 14 13 14 14 15 15 17 18 17 16 15 15 17 18 23 27 25 24 24 25 23 24 23 23
4 3 2 1 1 4 5 5 9 6 4 4 5 4 3 3 5 3 3 3 5 9 15 13 13 12 10 12 12 13 14 12 11 10 13 13 13 13 16 17 18 18 19 21 25 28 28 28 27 27 24 24 24 26
4 5 4 3 3 4 4 4 3 2 3 4 6 3 7 6 2 3 3 4 5 6 10 10 9 9 12 13 13 14 14 13 13 11 11 10 10 10 11 12 11 15 19 22 26 27 28 29 32 30 28 27 26 26
5 4 2 4 4 5 5 3 3 3 4 3 3 3 2 3 4 3 3 3 4 8 11 13 10 11 11 12 12 12 14 16 17 8 11 7 8 11 12 12 14 17 19 23 25 27 28 29 29 31 30 28 27 26
5 5 2 4 4 5 4 4 2 3 3 3 1 3 3 4 8 7 7 6 6 6 7 9 10 13 13 15 14 11 11 12 11 11 8 8 10 10 16 18 19 22 23 22 23 23 25 24 24 26 25 25 25 25
4 4 4 5 4 3 3 2 1 2 1 3 4 3 4 3 6 11 13 10 7 7 9 10 9 8 11 10 11 9 6 12 13 8 7 7 10 14 17 21 21 23 23 23 25 27 30 30 29 28 27 26 27 27
4 4 2 3 3 1 2 2 2 3 3 3 4 3 2 2 3 3 11 8 5 6 5 4 5 4 4 5 7 7 4 3 5 12 12 11 9 9 13 17 20 22 22 23 26 29 32 32 30 30 29 29 29 29
3 4 4 3 2 2 2 2 3 3 3 2 3 3 3 3 4 3 6 13 7 4 5 3 0 2 3 3 5 8 8 9 6 5 10 13 11 10 11 15 18 21 22 24 27 30 32 31 30 30 30 29 30 29
Wind_Direction
191 191 190 187 186 188 186 188 187 184 181 182 183 185 185 190 193 188 126 20 332 71 80 18 25 89 162 222 166 116 146 190 195 219 194 195 261 190 226 134 169 167 161 201 182 161 162 144 150 297 98 108 98 88
189 185 186 187 185 184 180 187 189 186 176 184 184 185 186 187 190 185 208 76 8 5 81 81 77 52 33 3 350 175 312 172 175 215 240 111 190 159 225 178 245 183 345 162 16 76 111 87 86 102 105 113 107 107
183 181 181 182 184 180 181 179 189 184 188 186 182 183 184 183 182 174 34 123 232 119 124 172 106 43 17 337 323 249 74 66 92 333 73 61 219 294 192 205 167 138 191 124 143 128 123 113 103 99 98 107 109 118
176 177 178 177 179 177 181 181 182 188 198 183 182 182 182 180 182 168 349 207 312 160 124 99 99 51 338 272 197 325 17 82 118 74 62 83 173 301 16 0 276 31 171 137 104 130 128 128 110 110 108 110 113 117
172 173 173 174 175 176 178 177 183 188 185 183 179 182 178 175 175 188 344 100 0 322 143 123 122 43 40 124 156 149 154 176 152 106 93 133 85 191 59 291 212 200 159 185 196 163 165 143 130 127 127 123 121 123
169 170 171 173 175 173 175 176 177 182 185 177 178 176 172 169 154 149 218 233 228 329 154 137 97 70 78 97 98 91 94 61 75 127 116 93 80 271 197 213 80 106 90 10 112 147 117 130 134 127 122 123 125 125
168 170 172 173 176 175 176 175 175 178 182 175 172 174 171 164 163 136 25 23 174 216 133 133 135 118 108 142 93 104 76 67 58 115 92 144 162 243 243 245 139 120 113 109 114 119 127 141 130 125 124 119 121 123
171 170 171 172 174 176 177 177 175 176 177 172 161 160 156 165 191 266 18 328 159 254 244 144 106 150 285 156 110 317 107 99 22 81 185 199 147 220 235 169 136 132 129 135 130 138 135 127 125 124 128 130 129 129
177 177 177 177 176 174 177 176 171 176 171 152 144 137 127 162 189 192 313 141 185 300 173 190 161 139 159 101 116 114 345 88 356 203 179 253 193 216 227 165 154 150 150 143 123 122 131 135 134 137 138 140 135 134
185 186 183 181 179 175 177 171 169 168 159 143 139 150 171 195 152 125 74 36 337 258 236 214 89 127 177 161 110 129 48 127 189 178 68 239 243 153 192 166 155 151 138 143 136 142 143 144 147 146 146 143 139 138
188 188 188 185 183 181 174 173 171 163 148 157 156 162 128 143 121 29 90 119 205 208 194 174 162 141 174 163 120 47 139 169 227 137 232 221 241 174 148 133 141 152 155 152 154 146 152 148 147 146 141 138 136 133
195 193 193 190 187 182 180 177 171 163 170 171 130 125 144 150 129 167 185 154 220 185 159 158 146 116 117 129 113 151 132 195 214 104 200 248 165 123 149 153 150 149 147 155 147 147 145 147 146 143 139 134 131 132
190 193 188 187 185 181 180 176 178 168 170 147 110 171 195 128 174 178 165 173 185 149 165 139 137 129 133 115 107 158 143 171 125 202 236 254 130 153 148 146 141 136 141 133 130 128 120 118 130 130 121 137 139 138
194 187 185 183 183 182 182 177 180 189 231 170 164 159 209 176 219 195 183 156 136 150 153 152 136 116 130 145 155 154 93 148 205 216 231 158 152 149 145 146 140 138 130 122 120 113 108 113 116 134 139 146 144 140
188 187 185 182 181 178 178 183 190 203 358 266 236 181 173 224 203 202 197 125 155 157 154 145 112 104 115 124 170 123 167 226 223 233 121 122 143 152 150 157 139 122 131 134 132 124 120 125 125 126 135 135 143 146
182 174 187 185 183 181 178 181 188 219 297 232 241 166 148 153 145 144 145 150 158 148 147 152 144 162 153 154 178 204 187 220 170 121 110 135 148 150 146 143 140 144 139 135 134 135 131 131 133 132 133 137 150 151
179 174 178 176 178 175 175 163 190 190 219 246 207 194 154 163 169 174 159 155 154 156 161 151 154 173 129 187 201 190 219 62 111 110 135 146 146 144 143 138 137 138 137 138 137 136 136 137 137 136 135 141 143 147
185 176 174 169 170 165 172 134 156 176 247 269 238 151 141 151 161 158 163 160 169 168 156 139 122 178 164 186 184 159 123 116 102 131 134 135 137 141 142 140 143 142 139 139 139 140 142 147 148 146 144 146 142 144
177 170 171 169 164 148 139 166 193 71 233 272 134 150 136 142 150 155 162 167 159 115 131 167 144 173 164 111 118 131 138 133 137 126 124 133 137 139 140 142 142 142 143 145 147 150 153 156 153 154 154 156 154 158
162 160 161 164 165 156 147 146 111 214 186 158 146 102 117 139 150 156 156 134 145 146 97 145 123 82 105 107 128 141 139 138 137 125 121 124 134 140 144 146 147 146 145 148 147 150 152 151 157 160 163 165 163 164
145 151 152 165 149 139 110 134 224 159 146 121 152 129 127 144 139 141 142 155 136 141 114 111 104 100 89 113 123 129 137 151 156 148 141 137 145 144 146 148 147 149 150 153 157 158 161 164 163 165 165 162 163 163
134 149 157 142 66 96 185 194 198 162 124 137 127 99 86 92 110 112 168 138 109 85 79 129 122 126 127 133 133 137 147 144 137 132 136 141 143 147 151 150 150 152 159 166 167 169 173 170 169 166 165 161 160 157
119 145 139 88 157 199 157 201 179 150 115 125 127 95 64 77 95 158 92 112 97 92 108 105 112 117 122 130 130 126 136 139 140 141 148 146 147 150 152 161 167 167 168 178 175 174 173 170 170 162 161 163 160 155
108 59 34 89 309 106 132 157 128 106 116 115 90 107 106 109 161 164 138 134 116 138 128 137 132 125 127 136 140 143 145 143 136 144 147 147 147 155 162 170 173 178 176 171 172 171 166 166 168 166 169 168 163 159
65 60 308 1 296 124 100 71 73 73 99 87 84 101 119 147 131 160 178 153 155 154 148 154 149 151 145 142 143 140 148 149 147 144 155 155 149 151 158 167 173 178 175 171 170 167 170 171 173 172 170 168 167 169
114 326 357 344 322 79 101 109 120 119 104 74 91 106 151 135 127 198 182 165 165 163 168 167 154 147 147 158 154 158 159 155 153 152 162 165 165 166 166 169 171 176 185 184 174 168 171 174 175 173 172 172 173 172
92 81 72 324 45 95 75 80 109 93 95 119 144 141 133 138 196 144 101 114 154 164 175 173 169 162 148 148 149 154 165 166 167 163 169 174 178 183 186 185 190 193 187 185 188 183 174 175 175 177 176 178 180 184
55 31 59 10 62 43 83 86 91 105 111 134 132 147 161 172 121 80 67 105 119 140 153 161 164 161 152 155 151 149 152 150 139 129 137 161 180 187 192 194 196 194 188 190 200 194 191 187 181 179 179 179 182 188
47 7 21 40 61 61 44 44 82 62 353 153 110 116 113 58 34 66 78 85 116 139 144 144 144 144 141 147 154 157 164 165 167 167 177 179 180 194 188 187 191 183 182 194 205 203 200 199 197 191 183 180 183 183
26 357 56 44 45 48 30 1 66 10 356 42 90 131 109 87 58 58 60 57 81 91 129 146 153 159 159 156 153 154 172 187 197 190 197 207 205 198 191 193 188 189 193 196 194 190 199 195 188 180 173 170 174 177
356 7 54 47 74 52 27 356 256 152 41 46 26 62 83 104 90 53 43 46 76 105 107 112 125 141 152 156 167 169 189 205 199 200 212 221 218 212 203 201 201 195 194 190 187 187 180 180 175 174 175 174 177 180
35 40 61 91 89 49 358 37 38 52 26 42 45 45 116 120 85 67 20 34 56 67 73 98 118 142 162 185 196 202 188 205 239 222 209 209 218 223 212 204 202 200 197 195 195 189 188 177 175 178 180 179 182 184
40 42 65 91 106 89 48 42 54 84 61 64 44 26 41 40 92 80 51 33 31 21 34 38 280 237 240 237 236 232 228 238 255 231 219 223 227 226 220 213 209 204 200 198 193 190 184 181 180 181 182 183 185 188
Height
708 713 719 725 731 736 740 744 748 751 757 763 767 772 774 777 781 782 782 782 781 772 782 782 781 777 777 773 779 779 785 786 787 788 787 796 795 793 793 786 794 797 805 803 802 811 836 804 810 818 822 821 825 829
706 713 719 725 730 736 741 745 749 752 757 763 767 772 775 778 781 784 782 783 783 779 785 788 789 789 789 789 782 781 777 777 776 781 786 786 797 797 788 802 790 800 791 796 801 807 804 805 812 814 817 824 829 836
707 713 719 725 731 735 741 744 750 753 757 763 768 773 776 779 782 785 785 786 785 780 785 785 786 791 791 791 791 784 782 783 785 787 783 791 798 790 800 789 793 795 792 798 803 812 811 814 817 819 824 829 835 841
707 714 720 725 729 734 739 746 751 755 758 762 769 773 776 780 783 787 788 788 787 781 790 791 790 792 792 791 791 792 790 790 790 786 796 801 802 801 795 794 791 792 794 801 807 811 816 818 823 828 833 837 842 846
708 714 719 725 731 737 742 747 752 756 760 764 770 775 778 782 785 788 789 789 789 788 786 787 791 794 792 791 792 792 791 789 787 796 810 803 800 802 802 801 797 793 794 803 803 808 809 822 828 833 837 841 846 851
710 715 721 727 732 737 742 748 752 756 761 766 772 777 780 783 788 791 790 791 791 791 783 787 794 794 794 793 793 792 792 791 789 795 799 801 805 804 806 802 798 800 800 802 802 807 812 825 831 836 841 847 851 855
712 717 723 728 733 738 743 748 752 758 763 769 774 779 782 785 789 792 790 791 792 793 787 791 790 795 796 794 795 795 796 796 794 800 801 798 800 804 806 806 800 803 807 807 810 816 825 829 835 842 846 852 857 861
713 718 724 729 735 739 744 750 756 761 767 771 776 780 784 788 792 793 791 791 793 792 786 789 793 793 796 791 796 798 797 798 805 803 803 799 803 803 809 795 802 807 812 815 817 819 825 833 841 847 852 857 861 866
714 719 724 730 736 741 747 752 757 763 768 771 777 782 788 792 792 792 793 793 795 795 788 784 785 796 795 798 797 799 798 809 808 805 801 803 799 810 797 795 805 809 813 819 820 825 833 839 845 850 854 859 863 868
714 719 725 730 735 743 747 752 758 765 768 773 779 782 787 787 791 793 796 799 796 790 788 779 775 790 791 793 801 803 802 805 810 805 806 807 799 792 798 796 804 811 815 820 824 832 836 842 846 851 855 860 866 872
714 719 723 729 734 740 746 753 759 764 769 773 776 781 784 788 791 794 800 800 795 790 783 778 776 789 795 796 802 800 805 806 810 804 807 803 796 792 802 808 811 815 818 821 824 830 836 840 845 851 857 863 870 876
713 718 724 729 735 741 746 754 759 762 768 769 773 780 784 787 793 792 794 793 783 770 771 777 780 787 796 796 801 809 808 813 809 809 815 804 789 795 806 812 815 818 821 824 826 832 838 844 848 854 860 867 874 879
711 717 723 729 735 741 748 754 760 766 769 772 776 778 774 787 780 778 774 765 761 755 764 772 785 790 796 796 804 808 814 814 813 818 806 786 796 805 811 812 816 821 824 827 832 838 843 848 853 859 864 871 875 880
710 717 723 729 736 743 749 756 761 766 769 769 775 774 767 766 758 742 737 739 748 756 763 768 778 785 792 797 803 810 805 812 817 822 793 781 800 810 816 819 821 826 831 837 843 846 849 854 860 865 869 873 877 882
709 716 723 731 737 744 750 756 762 767 766 763 757 747 757 739 732 731 732 741 750 755 759 769 778 782 791 802 799 810 817 812 795 778 775 791 807 816 821 821 823 832 839 844 847 851 855 860 864 870 874 878 881 885
709 719 724 732 739 746 753 761 766 769 767 765 748 730 727 734 737 736 737 744 747 752 761 763 775 782 787 788 797 803 794 780 770 773 789 803 813 818 823 826 831 835 839 844 849 854 859 863 868 873 878 882 885 888
707 709 717 729 740 748 756 763 767 766 768 753 735 724 726 733 741 739 737 741 747 750 756 758 770 776 775 782 781 772 774 770 782 791 804 809 815 820 825 830 834 837 841 846 851 857 862 866 871 876 880 886 889 893
696 707 716 728 739 749 754 757 759 759 757 748 731 729 724 731 735 736 739 743 746 746 750 755 762 768 770 770 766 768 780 784 792 803 808 813 819 824 828 833 837 840 844 849 854 859 863 868 872 877 882 886 891 895
689 704 716 729 738 742 749 756 758 754 754 749 735 733 731 733 737 740 743 746 746 750 756 755 760 761 760 759 761 772 782 794 804 809 813 818 822 827 831 836 840 844 848 853 857 860 865 868 872 877 882 886 889 894
692 704 716 729 739 742 745 747 752 750 742 744 743 742 741 739 741 742 745 748 752 755 764 762 759 759 763 769 770 778 786 797 804 811 818 822 826 830 834 838 842 847 852 855 858 861 865 869 873 877 881 885 889 892
696 709 720 732 737 737 739 741 740 735 739 743 737 736 743 739 744 746 749 751 755 759 763 763 766 774 777 779 778 782 791 797 801 805 814 821 827 831 836 841 845 849 852 856 859 862 865 869 872 877 881 885 888 892
702 715 723 731 732 733 733 734 729 729 728 733 732 735 746 754 754 753 754 753 758 764 765 767 772 777 781 782 784 788 791 795 800 808 815 821 826 832 837 841 845 849 853 857 859 863 865 869 873 876 880 884 888 892
705 715 719 729 736 734 733 730 723 721 727 734 733 741 750 756 759 756 759 758 765 772 772 774 777 778 782 785 788 792 796 798 803 808 814 817 824 831 837 842 845 849 852 855 857 861 863 867 872 875 880 884 887 891
709 718 724 726 723 724 723 722 714 720 724 729 738 746 751 757 757 755 755 758 766 772 775 779 780 783 787 791 793 796 797 799 804 809 813 817 822 829 835 839 842 845 847 851 854 858 862 866 870 874 878 881 885 889
717 732 728 722 721 721 723 726 717 724 735 739 752 754 759 757 758 759 753 758 766 769 775 777 778 781 783 787 793 798 799 801 804 808 813 816 821 827 832 837 840 843 845 849 852 855 860 865 868 872 876 879 884 888
728 729 725 722 719 714 715 724 730 728 735 746 746 752 754 751 764 762 752 757 762 768 774 775 777 779 782 786 791 797 800 802 806 809 814 817 820 824 828 832 836 841 843 846 848 852 858 862 866 870 874 878 882 885
724 729 725 723 716 714 719 718 717 730 744 750 747 755 756 760 764 749 759 760 762 766 771 775 776 779 782 787 791 796 800 804 806 810 813 817 820 822 826 829 832 835 839 842 844 848 852 857 862 867 871 876 879 882
728 726 727 729 724 719 727 728 735 743 735 735 741 752 752 751 748 760 765 770 771 771 773 776 779 781 785 789 793 796 801 804 807 810 814 817 820 822 824 827 830 832 835 838 840 844 848 852 856 861 866 871 875 880
734 732 730 734 732 737 743 742 738 744 748 740 750 747 755 761 768 769 773 774 774 774 775 777 781 784 787 791 794 797 800 803 806 809 812 815 817 819 822 824 826 829 832 834 837 841 844 848 852 857 862 867 871 876
741 739 737 741 741 749 758 760 760 762 757 756 755 757 761 769 775 776 776 776 777 778 780 781 783 785 787 790 793 797 799 802 804 806 808 810 813 815 817 820 822 825 827 830 834 840 845 849 853 858 862 866 870 875
745 741 745 748 757 764 765 766 766 765 765 763 763 761 764 772 778 781 781 782 783 784 784 785 787 788 790 792 794 797 799 800 802 804 806 808 809 811 813 816 819 822 824 827 831 835 839 844 849 854 858 862 866 871
754 757 752 754 763 768 766 765 764 763 764 764 767 769 772 772 776 785 788 786 786 786 787 787 788 790 792 793 794 796 797 799 800 801 804 806 807 809 811 814 816 819 822 825 828 832 836 839 844 849 854 858 863 867
757 757 757 759 762 764 767 765 763 766 768 769 774 776 777 776 781 789 790 789 789 788 788 788 789 790 791 792 793 794 796 797 799 800 801 804 806 808 809 811 813 816 819 822 826 829 833 837 841 845 849 854 859 863